Weather Service Report


735 
ASUS41 KCTP 210310
RWRCTP

REGIONAL WEATHER ROUNDUP
NATIONAL WEATHER SERVICE STATE COLLEGE PA
1100 PM EDT MON APR 20 2015

Note: "fair" indicates few or no clouds below 12,000 feet with no 
significant weather and/or obstructions to visibility.

* = STATION THAT DOES NOT REPORT PRECIPITATION /E.G. RAIN...SNOW...ETC/
    THUNDER OR FOG.

PAZ002>004-007>009-013>016-020>023-029>032-210400-
WESTERN PENNSYLVANIA
  
CITY           SKY/WX    TMP DP  RH WIND       PRES   REMARKS
ERIE           MOCLDY    48  40  73 W21G32    29.57R                  
MEADVILLE      MOCLDY    50  40  68 W9G18     29.58R                  
FRANKLIN*      CLOUDY    50  39  66 W8        29.60R                  
NEW CASTLE     MOCLDY    53  43  69 W14G21    29.62R                  
BEAVER COUNTY  NOT AVBL                                               
BUTLER*        CLOUDY    52  43  71 NW10G17   29.63R                  
PITTSBURGH INT CLOUDY    54  41  61 W15G24    29.61R                  
PITTSBURGH     CLOUDY    54  41  61 W14G22    29.61R                  
INDIANA*       CLOUDY    57  50  77 W12G18    29.61R                  
LATROBE        NOT AVBL                                               
WASHINGTON CO* CLOUDY    52  45  76 W8        29.67R                  
$$

PAZ004>006-010>012-017>019-024>028-033>037-041-042-045-046-049>053-210400-
CENTRAL PENNSYLVANIA
  
CITY           SKY/WX    TMP DP  RH WIND       PRES   REMARKS
BRADFORD       RAIN      49  46  90 NW22G28   29.55R                  
DUBOIS         CLOUDY    55  49  80 W12       29.55R                  
CLEARFIELD     PTCLDY    56  47  71 SW6       29.56R                  
JOHNSTOWN      MOCLDY    53  48  83 W13       29.58R                  
ALTOONA        CLOUDY    56  49  77 SW7       29.57S                  
STATE COLLEGE  PTCLDY    53  51  92 CALM      29.55R                  
WILLIAMSPORT   RAIN      56  54  93 E9        29.53F                  
SELINSGROVE    HVY RAIN  56  54  93 SE5       29.58R FOG              
FT INDIANTOWN  LGT RAIN  57  53  88 NW9       29.55F                  
CAPITAL CITY   CLOUDY    58  55  90 NW10      29.55F                  
HARRISBURG     CLOUDY    59  54  83 NW10      29.53F                  
YORK           MOCLDY    67  56  67 W3        29.51R                  
$$

PAZ038>040-043-044-047-048-054-055-060>062-067>071-210400-
EASTERN PENNSYLVANIA
  
CITY           SKY/WX    TMP DP  RH WIND       PRES   REMARKS
SCRANTON       TSTM      57  53  86 MISG      29.60R FOG              
MOUNT POCONO   LGT RAIN  53  51  93 E9        29.57F VSB 1/4          
ALLENTOWN      CLOUDY    59  57  93 NE6       29.55F FOG              
QUAKERTOWN*    CLOUDY    59  59 100 NE3       29.56S                  
READING        CLOUDY    64  60  87 SE5       29.51F                  
LANCASTER      CLOUDY    68  59  73 NW15      29.54R                  
COATESVILLE    LGT RAIN  66  54  63 S10G24    29.55S                  
POTTSTOWN      CLOUDY    64  62  93 CALM      29.53F                  
BLUE BELL      CLOUDY    68  63  83 SE6       29.53F                  
DOYLESTOWN     CLOUDY    59  59 100 VRB3      29.54F                  
WILLOW GROVE   NOT AVBL                                               
NORTH PHILA    CLOUDY    67  58  72 S6        29.56F                  
PHILADELPHIA   CLOUDY    68  60  75 S13G20    29.55F                  
$$

Return to Home page


Western Regional Climate Center, wrcc@dri.edu